[Date Prev][Date Next][Thread Prev][Thread Next] - [Date Index][Thread Index][Author Index]

2 Line ISS Keps 8-13



ISS
1 25544U 98067A   01225.41006944  .00054869  00000-0  70326-3 0  3401
2 25544  51.6381 160.1076 0011095   8.7449 141.9703 15.58549281156011


----
Via the sarex mailing list at AMSAT.ORG courtesy of AMSAT-NA.
To unsubscribe, send "unsubscribe sarex" to Majordomo@amsat.org



AMSAT Top AMSAT Home